DW5918 Weather Reports


Display with metric or nautical units.
time (UTC)temp
F
wind
direction
speed
MPH
gust
MPH
rain 1hr
in
rain 24hr
in
rain mn
in
humidity
%
barometer
mb
20260504050110 38 286 0.0 0.0 0.00 0.00 0.00 70 1012.0
20260504044535 39 286 0.0 0.0 0.00 0.00 0.00 68 1012.3
20260504043123 39 286 0.0 0.0 0.00 0.00 0.00 70 1012.3
20260504040004 39 285 0.0 0.0 0.00 0.00 0.00 69 1012.1
20260504034634 40 286 0.0 0.0 0.00 0.00 0.00 68 1012.1
20260504033019 40 286 0.0 0.0 0.00 0.00 0.00 69 1012.1
20260504031610 41 286 0.0 0.0 0.00 0.00 0.00 68 1011.9
20260504030027 41 285 0.0 0.0 0.00 0.00 0.00 63 1011.8
20260504024619 41 285 0.0 1.0 0.00 0.00 0.00 64 1011.9
20260504023031 42 285 0.0 0.0 0.00 0.00 0.00 54 1012.0
20260504021631 42 285 0.0 0.0 0.00 0.00 0.00 53 1012.0
20260504020043 42 286 0.0 0.0 0.00 0.00 0.00 54 1011.9
20260504014630 43 285 0.0 1.0 0.00 0.00 0.00 53 1011.7
20260504013055 44 285 0.0 0.0 0.00 0.00 0.00 51 1011.5
20260504011517 44 285 0.0 1.0 0.00 0.00 0.00 49 1011.4
20260504004527 45 325 0.0 2.0 0.00 0.00 0.00 45 1011.0
20260504003124 45 325 0.0 4.0 0.00 0.00 0.00 44 1010.9
20260504001559 46 303 0.0 5.0 0.00 0.00 0.00 42 1010.6
20260504000132 46 307 0.0 2.0 0.00 0.00 0.00 40 1010.4
20260503234555 47 244 0.0 5.0 0.00 0.00 0.00 39 1010.3
20260503233018 47 277 1.0 6.0 0.00 0.00 0.00 37 1010.1
20260503231609 48 298 2.0 7.0 0.00 0.00 0.00 37 1010.0
20260503230022 49 297 2.0 7.0 0.00 0.00 0.00 36 1010.0
20260503224622 49 312 1.0 6.0 0.00 0.00 0.00 36 1009.9
20260503223039 49 270 3.0 11.0 0.00 0.00 0.00 37 1009.8
20260503221626 50 327 1.0 10.0 0.00 0.00 0.00 38 1009.7
20260503220033 49 328 4.0 12.0 0.00 0.00 0.00 37 1009.7
20260503214631 49 325 3.0 8.0 0.00 0.00 0.00 39 1009.8
20260503213051 49 234 4.0 20.0 0.00 0.00 0.00 37 1009.6
20260503211513 50 259 3.0 14.0 0.00 0.00 0.00 38 1009.7
20260503210106 50 317 6.0 18.0 0.00 0.00 0.00 38 1009.7
20260503204700 50 273 3.0 15.0 0.00 0.00 0.00 40 1009.7
20260503203128 48 293 1.0 14.0 0.00 0.00 0.00 42 1009.7
20260503201553 49 269 6.0 13.0 0.00 0.00 0.00 41 1009.7
20260503200003 47 290 3.0 12.0 0.00 0.00 0.00 42 1009.8
20260503194601 48 267 4.0 12.0 0.00 0.00 0.00 40 1009.8
20260503193019 48 348 1.0 13.0 0.00 0.00 0.00 43 1009.7
20260503191617 46 12 6.0 15.0 0.00 0.00 0.00 44 1009.9
20260503190043 45 275 3.0 13.0 0.00 0.00 0.00 45 1009.9
20260503184623 46 318 5.0 16.0 0.00 0.00 0.00 44 1009.9
20260503183054 45 293 5.0 19.0 0.00 0.00 0.00 43 1009.8
20260503181501 46 284 2.0 13.0 0.00 0.00 0.00 43 1009.8
20260503180059 47 304 3.0 19.0 0.00 0.00 0.00 43 1009.7
20260503174517 47 283 4.0 12.0 0.00 0.00 0.00 43 1009.7
20260503171534 45 347 4.0 10.0 0.00 0.00 0.00 44 1009.7
20260503170116 44 17 4.0 18.0 0.00 0.00 0.00 49 1009.8
20260503160127 43 302 5.0 12.0 0.00 0.00 0.00 53 1010.0
20260503120115 35 311 1.0 5.0 0.00 0.00 0.00 67 1010.2
20260503110128 33 306 1.0 5.0 0.00 0.01 0.00 60 1009.9
20260503081633 33 309 0.0 4.0 0.00 0.09 0.00 72 1010.1
20260503071524 34 313 0.0 8.0 0.00 0.11 0.00 73 1010.3
20260503070120 35 315 0.0 5.0 0.00 0.11 0.00 73 1010.2